State College, PA

8:55 AM EDT on May 25, 2017 (GMT -0400)
University Park

Weather History for KUNV - June, 2013

Change the Weather History Date:

Saturday, June 29, 2013

  Actual Average Record
Temperature  
Mean Temperature 68 °F -  
Max Temperature 78 °F 80 °F 96 °F (1933)
Min Temperature 59 °F 59 °F 46 °F (1938)
Cooling Degree Days 4    
Growing Degree Days 18 (Base 50)    
Moisture  
Dew Point 61 °F    
Average Humidity 84    
Maximum Humidity 97    
Minimum Humidity 47    
Precipitation  
Precipitation 0.00 in - - ()
Sea Level Pressure  
Sea Level Pressure 29.63 in    
Wind  
Wind Speed 3 mph (WSW)    
Max Wind Speed 14 mph    
Max Gust Speed -    
Visibility 9 miles    
Events Rain , Thunderstorm    
Averages and records for this station are not official NWS values.
T = Trace of Precipitation, MM = Missing Value Source: NWS Daily Summary

Daily Weather History Graph

Daily Weather History Graph

Search for Another Location

Airport or City:

Trip Planner

Search our weather history database for the weather conditions in past years. The results will help you decide how hot, cold, wet, or windy it might be!

Date:

Astronomy

Jun. 29, 2013 Rise Set
Actual Time 5:42 AM EDT 8:47 PM EDT
Civil Twilight 5:09 AM EDT 9:20 PM EDT
Nautical Twilight 4:26 AM EDT 10:02 PM EDT
Astronomical Twilight 3:36 AM EDT 10:53 PM EDT
Moon 12:12 AM EDT (6/29) 12:55 PM EDT (6/29)
Length of Visible Light 16h 11m
Length of Day
15h 04m
Waning Gibbous, 56% of the Moon is Illuminated
Jun 29
Waning Gibbous
Jun 30
Last Quarter
Jul 8
New
Jul 15
First Quarter
Jul 22
Full

Hourly Weather History & Observations

Time (EDT) Temp. Dew Point Humidity Pressure Visibility Wind Dir Wind Speed Gust Speed Precip Events Conditions
12:15 AM 61.2 °F 59.0 °F 93% 29.58 in 10.0 mi Calm Calm - N/A   Clear
12:35 AM 60.8 °F 59.2 °F 94% 29.59 in 10.0 mi Calm Calm - N/A   Clear
12:55 AM 60.3 °F 59.0 °F 96% 29.58 in 7.0 mi Calm Calm - N/A   Scattered Clouds
1:15 AM 59.4 °F 58.3 °F 96% 29.58 in 7.0 mi Calm Calm - N/A   Scattered Clouds
1:35 AM 59.5 °F 58.5 °F 96% 29.57 in 10.0 mi Calm Calm - N/A   Clear
1:55 AM 59.9 °F 58.5 °F 95% 29.58 in 10.0 mi West 4.6 mph - N/A   Clear
2:15 AM 60.6 °F 59.0 °F 94% 29.57 in 10.0 mi West 5.8 mph - N/A   Clear
2:35 AM 60.1 °F 59.0 °F 96% 29.57 in 7.0 mi SW 3.5 mph - N/A   Mostly Cloudy
2:55 AM 60.3 °F 58.8 °F 95% 29.56 in 7.0 mi Calm Calm - N/A   Scattered Clouds
3:15 AM 59.9 °F 59.0 °F 97% 29.55 in 7.0 mi West 4.6 mph - N/A   Clear
3:35 AM 59.2 °F 58.1 °F 96% 29.55 in 7.0 mi Calm Calm - N/A   Clear
3:55 AM 59.9 °F 58.3 °F 94% 29.55 in 10.0 mi West 4.6 mph - N/A   Clear
4:15 AM 59.0 °F 57.7 °F 96% 29.55 in 7.0 mi Calm Calm - N/A   Clear
4:35 AM 60.1 °F 58.3 °F 94% 29.56 in 10.0 mi Calm Calm - N/A   Clear
4:55 AM 59.4 °F 57.7 °F 94% 29.56 in 7.0 mi Calm Calm - N/A   Scattered Clouds
5:15 AM 59.2 °F 58.5 °F 97% 29.57 in 5.0 mi Calm Calm - N/A   Overcast
5:35 AM 59.9 °F 59.2 °F 97% 29.58 in 7.0 mi Calm Calm - N/A   Overcast
5:53 AM 60.8 °F 59.0 °F 94% 29.59 in 7.0 mi Calm Calm - N/A   Overcast
6:53 AM 60.8 °F 59.0 °F 94% 29.61 in 7.0 mi WSW 5.8 mph - N/A   Mostly Cloudy
7:53 AM 64.4 °F 60.8 °F 88% 29.62 in 10.0 mi SW 5.8 mph - N/A   Mostly Cloudy
8:53 AM 66.2 °F 60.8 °F 83% 29.64 in 10.0 mi WSW 9.2 mph - N/A   Mostly Cloudy
9:53 AM 69.8 °F 60.8 °F 73% 29.63 in 10.0 mi WSW 11.5 mph - N/A   Scattered Clouds
10:53 AM 71.6 °F 59.0 °F 64% 29.63 in 10.0 mi WSW 11.5 mph - N/A   Scattered Clouds
11:53 AM 73.4 °F 60.8 °F 65% 29.63 in 10.0 mi SW 11.5 mph - N/A   Mostly Cloudy
12:53 PM 77.0 °F 59.0 °F 54% 29.63 in 10.0 mi WSW 11.5 mph - N/A   Scattered Clouds
1:53 PM 78.8 °F 59.0 °F 51% 29.63 in 10.0 mi WSW 11.5 mph - N/A   Mostly Cloudy
2:53 PM 78.8 °F 59.0 °F 51% 29.62 in 10.0 mi WSW 13.8 mph - N/A   Scattered Clouds
3:53 PM 78.8 °F 57.2 °F 47% 29.63 in 10.0 mi SW 8.1 mph - N/A   Mostly Cloudy
4:53 PM 69.8 °F 64.4 °F 83% 29.66 in 10.0 mi SSW 10.4 mph - N/A Rain Light Rain
5:53 PM 71.6 °F 66.2 °F 83% 29.65 in 10.0 mi SW 3.5 mph - N/A   Mostly Cloudy
6:53 PM 75.2 °F 64.4 °F 69% 29.67 in 10.0 mi WSW 3.5 mph - N/A   Mostly Cloudy
7:53 PM 73.4 °F 64.4 °F 73% 29.68 in 10.0 mi Calm Calm - N/A   Mostly Cloudy
8:53 PM 69.8 °F 64.4 °F 83% 29.70 in 10.0 mi WSW 3.5 mph - N/A   Mostly Cloudy
9:15 PM 69.3 °F 63.7 °F 82% 29.70 in 10.0 mi Calm Calm - N/A   Mostly Cloudy
9:27 PM 69.8 °F 64.4 °F 83% 29.71 in 10.0 mi Calm Calm - N/A Thunderstorm Thunderstorm
9:35 PM 69.3 °F 63.7 °F 82% 29.71 in 10.0 mi Calm Calm - N/A Thunderstorm Scattered Clouds
9:55 PM 70.0 °F 63.5 °F 80% 29.72 in 10.0 mi West 4.6 mph - N/A   Clear
10:15 PM 70.2 °F 63.7 °F 80% 29.73 in 10.0 mi West 5.8 mph - N/A Rain Rain
10:35 PM 68.7 °F 64.2 °F 86% 29.73 in 10.0 mi Calm Calm - N/A   Mostly Cloudy
10:55 PM 67.1 °F 64.4 °F 91% 29.73 in 10.0 mi Calm Calm - N/A   Scattered Clouds
11:15 PM 67.1 °F 63.9 °F 89% 29.73 in 10.0 mi Calm Calm - N/A   Clear
11:35 PM 67.8 °F 63.9 °F 87% 29.74 in 10.0 mi West 5.8 mph - N/A   Clear
11:55 PM 66.2 °F 64.6 °F 94% 29.73 in 10.0 mi Calm Calm - N/A   Mostly Cloudy